Regional Weather Roundup
Issued by NWS

Home | Current Version | Previous Version | Text Only | Print | Product List | Glossary Off
Versions: 1 2 3 4 5 6 7 8 9 10 11 12 13 14 15 16 17 18 19 20 21 22 23 24 25 26 27 28 29 30 31 32 33 34 35 36 37 38 39 40 41 42 43 44 45 46 47 48 49 50

000
ASUS43 KOAX 222002
RWRNE

WEATHER ROUNDUP FOR NEBRASKA
NATIONAL WEATHER SERVICE OMAHA NE
300 PM CDT MON MAY 22 2017

NOTES: SATELLITE DATA IS BEING USED TO AUGMENT CLOUD COVER ABOVE
       12000 FEET.
       "FAIR" INDICATES FEW OR NO CLOUDS BELOW 12,000 FEET WITH NO
       SIGNIFICANT WEATHER AND/OR OBSTRUCTIONS TO VISIBILITY.

  * THESE STATIONS DO NOT REPORT WEATHER SUCH AS RAIN...SNOW OR FOG.

NEZ001>004-019>022-054>056-222100-
NEBRASKA PANHANDLE

CITY           SKY/WX    TMP DP  RH WIND       PRES   REMARKS
SCOTTSBLUFF    CLOUDY    53  43  68 W13       30.08S
ALLIANCE       CLOUDY    50  44  80 NW13      30.05F
CHADRON        LGT RAIN  52  44  74 NW15G21   30.07R
GORDON         RAIN      52  40  64 NW25G32   30.02R
KIMBALL        LGT RAIN  53  42  65 NW17G24   30.10R
SIDNEY         CLOUDY    59  39  47 N18G28    30.06F
$$

NEZ057>060-069>072-079>082-222100-
SOUTHWEST NEBRASKA

CITY           SKY/WX    TMP DP  RH WIND       PRES   REMARKS
NORTH PLATTE   MOSUNNY   67  45  45 NW12      29.96F
IMPERIAL       MOSUNNY   71  42  35 NW20G25   29.99F
LEXINGTON      PTSUNNY   70  44  39 NW17      29.94F
MCCOOK         MOSUNNY   75  40  28 N21G30    29.95F
OGALLALA       PTSUNNY   65  42  43 NW16      30.01R
$$

NEZ005>010-023>029-035>040-094-222100-
NORTH CENTRAL NEBRASKA

CITY           SKY/WX    TMP DP  RH WIND       PRES   REMARKS
VALENTINE      PTSUNNY   63  40  42 N20G28    29.95S
AINSWORTH      MOSUNNY   61  47  59 N6        29.94F
BROKEN BOW     PTSUNNY   66  47  50 N17G23    29.95S
O`NEILL        MOSUNNY   63  45  53 W14G21    29.93F
$$

NEZ041-046>049-061>064-073>077-083>087-222100-
SOUTH CENTRAL NEBRASKA

CITY           SKY/WX    TMP DP  RH WIND       PRES   REMARKS
GRAND ISLAND   MOSUNNY   75  46  35 NW13G22   29.90F
AURORA         PTSUNNY   73  42  31 W6        29.91F
HASTINGS       MOSUNNY   73  40  30 NW10      29.92F
HEBRON         CLOUDY    66  55  66 SW12G17   29.95F
HOLDREGE       MOSUNNY   72  41  32 W8        29.92F
KEARNEY *      PTSUNNY   70  43  37 W12       29.92F
$$

NEZ011>018-030>034-042>045-222100-
NORTHEAST NEBRASKA

CITY           SKY/WX    TMP DP  RH WIND       PRES   REMARKS
NORFOLK        MOSUNNY   68  44  42 NW16G28   29.90R
ALBION         MOSUNNY   66  45  46 NW20G29   29.93R
BLAIR          CLOUDY    72  46  38 W5        29.88F
FREMONT        CLOUDY    74  46  36 SW12      29.88F
TEKAMAH        MOSUNNY   74  48  39 W14G20    29.85F
WAYNE          CLOUDY    68  46  44 NW21G26   29.89R
$$

NEZ050>053-065>068-078-088>093-222100-
SOUTHEAST NEBRASKA

CITY           SKY/WX    TMP DP  RH WIND       PRES   REMARKS
LINCOLN        CLOUDY    71  51  49 SW18      29.91F
OMAHA EPPLEY   CLOUDY    74  49  41 SW13G18   29.88F
BEATRICE       CLOUDY    66  53  61 SW16      29.95F
FALLS CITY     CLOUDY    61  59  93 W9        29.94F
NEBRASKA CITY  CLOUDY    70  47  43 SW16G22   29.93F
$$

NEZ044-045-051>053-067-222100-
OMAHA AREA

CITY           SKY/WX    TMP DP  RH WIND       PRES   REMARKS
OMAHA EPPLEY   CLOUDY    74  49  41 SW13G18   29.88F
BLAIR          CLOUDY    72  46  38 W5        29.88F
FREMONT        CLOUDY    74  46  36 SW12      29.88F
MILLARD        CLOUDY    72  55  55 SW10G16   29.89F
OFFUTT AFB     CLOUDY    71  53  52 S17       29.88F
WAHOO          MOCLDY    74  42  31 SW7       29.88F
$$




USA.gov is the U.S. government's official web portal to all federal, state and local government web resources and services.